contact:dominique.lefevre@mio.osupytheas.fr, maurice.libes@osupytheas.fr, didier.mallarino@osupytheas.fr
Project:EMSO http://www.emso-fr.org/EMSO-France
Depth: 2436.0 m
Title:EMSO Ligure Ouest : Data MII capteur MICROCAT
DateTime_Computer,Latitude,Longitude,Temperature,Conductivity,Pressure,DateTime_Instrument
DateTime_Computer,Latitude,Longitude,degC,S m-1,dbar,DateTime_Instrument
2022-01-26T00:00:17Z,42.805,6.029,13.3058,4.60114,2470.366,2022-1-26T02:01:49Z
2022-01-26T00:03:20Z,42.805,6.029,13.3042,4.60110,2470.366,2022-1-26T02:04:52Z
2022-01-26T00:06:24Z,42.805,6.029,13.3033,4.60109,2470.38,2022-1-26T02:07:55Z
2022-01-26T00:09:27Z,42.805,6.029,13.3055,4.60107,2470.38,2022-1-26T02:10:59Z
2022-01-26T00:12:30Z,42.805,6.029,13.3048,4.60157,2470.32,2022-1-26T02:14:02Z
2022-01-26T00:15:33Z,42.805,6.029,13.3034,4.60092,2470.343,2022-1-26T02:17:05Z
2022-01-26T00:18:36Z,42.805,6.029,13.3053,4.60070,2470.366,2022-1-26T02:20:08Z
2022-01-26T00:21:39Z,42.805,6.029,13.3015,4.60082,2470.39,2022-1-26T02:23:11Z
2022-01-26T00:24:42Z,42.805,6.029,13.3021,4.60110,2470.343,2022-1-26T02:26:14Z
2022-01-26T00:27:45Z,42.805,6.029,13.3052,4.60113,2470.32,2022-1-26T02:29:17Z
2022-01-26T00:30:49Z,42.805,6.029,13.3068,4.60089,2470.32,2022-1-26T02:32:20Z
2022-01-26T00:33:52Z,42.805,6.029,13.3060,4.60093,2470.343,2022-1-26T02:35:24Z
2022-01-26T00:36:55Z,42.805,6.029,13.3057,4.60120,2470.343,2022-1-26T02:38:27Z
2022-01-26T00:39:58Z,42.805,6.029,13.3066,4.60089,2470.357,2022-1-26T02:41:30Z
2022-01-26T00:43:01Z,42.805,6.029,13.3070,4.60085,2470.357,2022-1-26T02:44:33Z
2022-01-26T00:46:04Z,42.805,6.029,13.3032,4.60094,2470.334,2022-1-26T02:47:36Z
2022-01-26T00:49:07Z,42.805,6.029,13.3029,4.60044,2470.334,2022-1-26T02:50:39Z
2022-01-26T00:52:10Z,42.805,6.029,13.3049,4.60079,2470.31,2022-1-26T02:53:42Z
2022-01-26T00:55:14Z,42.805,6.029,13.3028,4.60058,2470.357,2022-1-26T02:56:45Z
2022-01-26T00:58:17Z,42.805,6.029,13.3024,4.60089,2470.366,2022-1-26T02:59:49Z
2022-01-26T01:01:20Z,42.805,6.029,13.3021,4.60097,2470.357,2022-1-26T03:02:52Z
2022-01-26T01:04:23Z,42.805,6.029,13.3024,4.60078,2470.32,2022-1-26T03:05:55Z
2022-01-26T01:07:26Z,42.805,6.029,13.3042,4.60044,2470.334,2022-1-26T03:08:58Z
2022-01-26T01:10:29Z,42.805,6.029,13.3027,4.60040,2470.366,2022-1-26T03:12:01Z
2022-01-26T01:13:32Z,42.805,6.029,13.3050,4.60046,2470.31,2022-1-26T03:15:04Z
2022-01-26T01:16:35Z,42.805,6.029,13.3041,4.60067,2470.334,2022-1-26T03:18:07Z
2022-01-26T01:19:38Z,42.805,6.029,13.3010,4.60064,2470.334,2022-1-26T03:21:10Z
2022-01-26T01:22:42Z,42.805,6.029,13.3043,4.60059,2470.334,2022-1-26T03:24:13Z
2022-01-26T01:25:45Z,42.805,6.029,13.3043,4.60052,2470.343,2022-1-26T03:27:17Z
2022-01-26T01:28:48Z,42.805,6.029,13.3055,4.60060,2470.357,2022-1-26T03:30:20Z
2022-01-26T01:31:51Z,42.805,6.029,13.3018,4.60057,2470.32,2022-1-26T03:33:23Z
2022-01-26T01:34:54Z,42.805,6.029,13.3026,4.60095,2470.32,2022-1-26T03:36:26Z
2022-01-26T01:37:57Z,42.805,6.029,13.3031,4.60049,2470.343,2022-1-26T03:39:29Z
2022-01-26T01:41:00Z,42.805,6.029,13.3044,4.60051,2470.334,2022-1-26T03:42:32Z
2022-01-26T01:44:03Z,42.805,6.029,13.3028,4.60054,2470.334,2022-1-26T03:45:35Z
2022-01-26T01:47:07Z,42.805,6.029,13.3009,4.60085,2470.32,2022-1-26T03:48:38Z
2022-01-26T01:50:10Z,42.805,6.029,13.3021,4.60077,2470.32,2022-1-26T03:51:42Z
2022-01-26T01:53:13Z,42.805,6.029,13.3020,4.60068,2470.357,2022-1-26T03:54:45Z
2022-01-26T01:56:16Z,42.805,6.029,13.3036,4.60077,2470.297,2022-1-26T03:57:48Z
2022-01-26T01:59:19Z,42.805,6.029,13.3054,4.60043,2470.32,2022-1-26T04:00:51Z
2022-01-26T02:02:22Z,42.805,6.029,13.3020,4.60052,2470.31,2022-1-26T04:03:54Z
2022-01-26T02:05:25Z,42.805,6.029,13.3026,4.60051,2470.31,2022-1-26T04:06:57Z
2022-01-26T02:08:28Z,42.805,6.029,13.3024,4.60057,2470.334,2022-1-26T04:10:00Z
2022-01-26T02:11:32Z,42.805,6.029,13.3026,4.60076,2470.273,2022-1-26T04:13:03Z
2022-01-26T02:14:35Z,42.805,6.029,13.3061,4.60060,2470.334,2022-1-26T04:16:07Z
2022-01-26T02:17:38Z,42.805,6.029,13.3027,4.60052,2470.32,2022-1-26T04:19:10Z
2022-01-26T02:20:41Z,42.805,6.029,13.3045,4.60072,2470.32,2022-1-26T04:22:13Z
2022-01-26T02:23:44Z,42.805,6.029,13.3041,4.60067,2470.32,2022-1-26T04:25:16Z
2022-01-26T02:26:47Z,42.805,6.029,13.3056,4.60053,2470.297,2022-1-26T04:28:19Z
2022-01-26T02:29:50Z,42.805,6.029,13.3054,4.60059,2470.334,2022-1-26T04:31:22Z
2022-01-26T02:32:53Z,42.805,6.029,13.3041,4.60052,2470.287,2022-1-26T04:34:25Z
2022-01-26T02:35:57Z,42.805,6.029,13.3046,4.60057,2470.347,2022-1-26T04:37:28Z
2022-01-26T02:39:00Z,42.805,6.029,13.3050,4.60104,2470.287,2022-1-26T04:40:32Z
2022-01-26T02:42:03Z,42.805,6.029,13.3050,4.60071,2470.287,2022-1-26T04:43:35Z
2022-01-26T02:45:06Z,42.805,6.029,13.3058,4.60052,2470.287,2022-1-26T04:46:38Z
2022-01-26T02:48:09Z,42.805,6.029,13.3060,4.60074,2470.273,2022-1-26T04:49:41Z
2022-01-26T02:51:12Z,42.805,6.029,13.3070,4.60084,2470.273,2022-1-26T04:52:44Z
2022-01-26T02:54:15Z,42.805,6.029,13.3083,4.60082,2470.31,2022-1-26T04:55:47Z
2022-01-26T02:57:18Z,42.805,6.029,13.3081,4.60059,2470.287,2022-1-26T04:58:50Z
2022-01-26T03:00:22Z,42.805,6.029,13.3089,4.60084,2470.297,2022-1-26T05:01:53Z
2022-01-26T03:03:25Z,42.805,6.029,13.3087,4.60062,2470.287,2022-1-26T05:04:57Z
2022-01-26T03:06:28Z,42.805,6.029,13.3089,4.60113,2470.287,2022-1-26T05:08:00Z
2022-01-26T03:09:31Z,42.805,6.029,13.3005,4.60049,2470.297,2022-1-26T05:11:03Z
2022-01-26T03:12:34Z,42.805,6.029,13.3000,4.60035,2470.32,2022-1-26T05:14:06Z
2022-01-26T03:15:37Z,42.805,6.029,13.2999,4.60037,2470.31,2022-1-26T05:17:09Z
2022-01-26T03:18:40Z,42.805,6.029,13.2998,4.60051,2470.25,2022-1-26T05:20:12Z
2022-01-26T03:21:43Z,42.805,6.029,13.3000,4.60045,2470.287,2022-1-26T05:23:15Z
2022-01-26T03:24:46Z,42.805,6.029,13.3000,4.60051,2470.297,2022-1-26T05:26:18Z
2022-01-26T03:27:50Z,42.805,6.029,13.3041,4.60052,2470.273,2022-1-26T05:29:21Z
2022-01-26T03:30:53Z,42.805,6.029,13.3002,4.60043,2470.297,2022-1-26T05:32:25Z
2022-01-26T03:33:56Z,42.805,6.029,13.3001,4.60043,2470.287,2022-1-26T05:35:28Z
2022-01-26T03:36:59Z,42.805,6.029,13.3004,4.60031,2470.25,2022-1-26T05:38:31Z
2022-01-26T03:40:02Z,42.805,6.029,13.3004,4.60031,2470.31,2022-1-26T05:41:34Z
2022-01-26T03:43:05Z,42.805,6.029,13.3000,4.60033,2470.297,2022-1-26T05:44:37Z
2022-01-26T03:46:08Z,42.805,6.029,13.2999,4.60029,2470.287,2022-1-26T05:47:40Z
2022-01-26T03:49:12Z,42.805,6.029,13.2996,4.60037,2470.297,2022-1-26T05:50:43Z
2022-01-26T03:52:15Z,42.805,6.029,13.3000,4.60033,2470.273,2022-1-26T05:53:47Z
2022-01-26T03:55:18Z,42.805,6.029,13.3000,4.60035,2470.297,2022-1-26T05:56:50Z
2022-01-26T03:58:21Z,42.805,6.029,13.3000,4.60032,2470.273,2022-1-26T05:59:53Z
2022-01-26T04:01:24Z,42.805,6.029,13.2998,4.60029,2470.31,2022-1-26T06:02:56Z
2022-01-26T04:04:27Z,42.805,6.029,13.2999,4.60027,2470.31,2022-1-26T06:05:59Z
2022-01-26T04:07:30Z,42.805,6.029,13.2994,4.60028,2470.31,2022-1-26T06:09:02Z
2022-01-26T04:10:33Z,42.805,6.029,13.2998,4.60027,2470.273,2022-1-26T06:12:05Z
2022-01-26T04:13:36Z,42.805,6.029,13.3001,4.60029,2470.273,2022-1-26T06:15:08Z
2022-01-26T04:16:40Z,42.805,6.029,13.2997,4.60029,2470.31,2022-1-26T06:18:11Z
2022-01-26T04:19:43Z,42.805,6.029,13.3000,4.60030,2470.287,2022-1-26T06:21:15Z
2022-01-26T04:22:46Z,42.805,6.029,13.2997,4.60032,2470.273,2022-1-26T06:24:18Z
2022-01-26T04:25:49Z,42.805,6.029,13.3000,4.60032,2470.297,2022-1-26T06:27:21Z
2022-01-26T04:28:52Z,42.805,6.029,13.2998,4.60026,2470.297,2022-1-26T06:30:24Z
2022-01-26T04:31:55Z,42.805,6.029,13.3001,4.60027,2470.273,2022-1-26T06:33:27Z
2022-01-26T04:34:58Z,42.805,6.029,13.2998,4.60031,2470.25,2022-1-26T06:36:30Z
2022-01-26T04:38:01Z,42.805,6.029,13.2998,4.60033,2470.26,2022-1-26T06:39:33Z
2022-01-26T04:41:05Z,42.805,6.029,13.2999,4.60030,2470.25,2022-1-26T06:42:36Z
2022-01-26T04:44:08Z,42.805,6.029,13.3000,4.60029,2470.25,2022-1-26T06:45:40Z
2022-01-26T04:47:11Z,42.805,6.029,13.3000,4.60029,2470.264,2022-1-26T06:48:43Z
2022-01-26T04:50:14Z,42.805,6.029,13.3006,4.60043,2470.25,2022-1-26T06:51:46Z
2022-01-26T04:53:17Z,42.805,6.029,13.3036,4.60064,2470.273,2022-1-26T06:54:49Z
2022-01-26T04:56:20Z,42.805,6.029,13.3009,4.60046,2470.227,2022-1-26T06:57:52Z
2022-01-26T04:59:23Z,42.805,6.029,13.3006,4.60033,2470.24,2022-1-26T07:00:55Z
2022-01-26T05:02:26Z,42.805,6.029,13.3008,4.60031,2470.24,2022-1-26T07:03:58Z
2022-01-26T05:05:30Z,42.805,6.029,13.2999,4.60029,2470.227,2022-1-26T07:07:01Z
2022-01-26T05:08:33Z,42.805,6.029,13.3000,4.60027,2470.24,2022-1-26T07:10:05Z
2022-01-26T05:11:36Z,42.805,6.029,13.2996,4.60031,2470.24,2022-1-26T07:13:08Z
2022-01-26T05:14:39Z,42.805,6.029,13.2999,4.60031,2470.25,2022-1-26T07:16:11Z
2022-01-26T05:17:42Z,42.805,6.029,13.2999,4.60028,2470.203,2022-1-26T07:19:14Z
2022-01-26T05:20:45Z,42.805,6.029,13.2998,4.60026,2470.213,2022-1-26T07:22:17Z
2022-01-26T05:23:48Z,42.805,6.029,13.2998,4.60026,2470.227,2022-1-26T07:25:20Z
2022-01-26T05:26:51Z,42.805,6.029,13.3001,4.60029,2470.203,2022-1-26T07:28:23Z
2022-01-26T05:29:55Z,42.805,6.029,13.3004,4.60036,2470.227,2022-1-26T07:31:26Z
2022-01-26T05:32:58Z,42.805,6.029,13.3023,4.60043,2470.227,2022-1-26T07:34:30Z
2022-01-26T05:36:01Z,42.805,6.029,13.3013,4.60036,2470.25,2022-1-26T07:37:33Z
2022-01-26T05:39:04Z,42.805,6.029,13.3016,4.60041,2470.25,2022-1-26T07:40:36Z
2022-01-26T05:42:07Z,42.805,6.029,13.3048,4.60056,2470.227,2022-1-26T07:43:39Z
2022-01-26T05:45:10Z,42.805,6.029,13.3021,4.60057,2470.264,2022-1-26T07:46:42Z
2022-01-26T05:48:13Z,42.805,6.029,13.3029,4.60053,2470.25,2022-1-26T07:49:45Z
2022-01-26T05:51:16Z,42.805,6.029,13.3021,4.60057,2470.25,2022-1-26T07:52:48Z
2022-01-26T05:54:20Z,42.805,6.029,13.3025,4.60051,2470.264,2022-1-26T07:55:51Z
2022-01-26T05:57:23Z,42.805,6.029,13.3026,4.60049,2470.273,2022-1-26T07:58:55Z
2022-01-26T06:00:26Z,42.805,6.029,13.3028,4.60050,2470.227,2022-1-26T08:01:58Z
2022-01-26T06:03:29Z,42.805,6.029,13.3026,4.60052,2470.25,2022-1-26T08:05:01Z
2022-01-26T06:06:32Z,42.805,6.029,13.3027,4.60057,2470.273,2022-1-26T08:08:04Z
2022-01-26T06:09:35Z,42.805,6.029,13.3026,4.60059,2470.25,2022-1-26T08:11:07Z
2022-01-26T06:12:38Z,42.805,6.029,13.3026,4.60072,2470.24,2022-1-26T08:14:10Z
2022-01-26T06:15:41Z,42.805,6.029,13.3025,4.60074,2470.287,2022-1-26T08:17:13Z
2022-01-26T06:18:44Z,42.805,6.029,13.3013,4.60059,2470.227,2022-1-26T08:20:16Z
2022-01-26T06:21:48Z,42.805,6.029,13.3023,4.60041,2470.227,2022-1-26T08:23:20Z
2022-01-26T06:24:51Z,42.805,6.029,13.3015,4.60054,2470.227,2022-1-26T08:26:23Z
2022-01-26T06:27:54Z,42.805,6.029,13.3015,4.60074,2470.25,2022-1-26T08:29:26Z
2022-01-26T06:30:57Z,42.805,6.029,13.3021,4.60046,2470.25,2022-1-26T08:32:29Z
2022-01-26T06:34:00Z,42.805,6.029,13.3020,4.60049,2470.287,2022-1-26T08:35:32Z
2022-01-26T06:37:03Z,42.805,6.029,13.3029,4.60062,2470.217,2022-1-26T08:38:35Z
2022-01-26T06:40:06Z,42.805,6.029,13.3029,4.60053,2470.287,2022-1-26T08:41:38Z
2022-01-26T06:43:09Z,42.805,6.029,13.3026,4.60045,2470.25,2022-1-26T08:44:41Z
2022-01-26T06:46:13Z,42.805,6.029,13.3021,4.60046,2470.273,2022-1-26T08:47:45Z
2022-01-26T06:49:16Z,42.805,6.029,13.3030,4.60053,2470.273,2022-1-26T08:50:48Z
2022-01-26T06:52:19Z,42.805,6.029,13.3036,4.60060,2470.273,2022-1-26T08:53:51Z
2022-01-26T06:55:22Z,42.805,6.029,13.3023,4.60049,2470.25,2022-1-26T08:56:54Z
2022-01-26T06:58:25Z,42.805,6.029,13.3024,4.60064,2470.25,2022-1-26T08:59:57Z
2022-01-26T07:01:28Z,42.805,6.029,13.3014,4.60063,2470.297,2022-1-26T09:03:00Z
2022-01-26T07:04:31Z,42.805,6.029,13.3014,4.60057,2470.287,2022-1-26T09:06:03Z
2022-01-26T07:07:34Z,42.805,6.029,13.3027,4.60061,2470.26,2022-1-26T09:09:06Z
2022-01-26T07:10:38Z,42.805,6.029,13.3022,4.60067,2470.25,2022-1-26T09:12:09Z
2022-01-26T07:13:41Z,42.805,6.029,13.3015,4.60057,2470.24,2022-1-26T09:15:13Z
2022-01-26T07:16:44Z,42.805,6.029,13.3024,4.60056,2470.25,2022-1-26T09:18:16Z
2022-01-26T07:19:47Z,42.805,6.029,13.3017,4.60095,2470.273,2022-1-26T09:21:19Z
2022-01-26T07:22:50Z,42.805,6.029,13.3017,4.60058,2470.264,2022-1-26T09:24:22Z
2022-01-26T07:25:53Z,42.805,6.029,13.3016,4.60056,2470.287,2022-1-26T09:27:25Z
2022-01-26T07:28:56Z,42.805,6.029,13.3008,4.60053,2470.273,2022-1-26T09:30:28Z
2022-01-26T07:31:59Z,42.805,6.029,13.3006,4.60073,2470.287,2022-1-26T09:33:31Z
2022-01-26T07:35:03Z,42.805,6.029,13.3013,4.60067,2470.287,2022-1-26T09:36:34Z
2022-01-26T07:38:06Z,42.805,6.029,13.3017,4.60077,2470.287,2022-1-26T09:39:38Z
2022-01-26T07:41:09Z,42.805,6.029,13.3008,4.60055,2470.24,2022-1-26T09:42:41Z
2022-01-26T07:44:12Z,42.805,6.029,13.3011,4.60060,2470.287,2022-1-26T09:45:44Z
2022-01-26T07:47:15Z,42.805,6.029,13.3014,4.60059,2470.297,2022-1-26T09:48:47Z
2022-01-26T07:50:18Z,42.805,6.029,13.3011,4.60069,2470.31,2022-1-26T09:51:50Z
2022-01-26T07:53:21Z,42.805,6.029,13.3013,4.60065,2470.297,2022-1-26T09:54:53Z
2022-01-26T07:56:24Z,42.805,6.029,13.3008,4.60056,2470.297,2022-1-26T09:57:56Z
2022-01-26T07:59:28Z,42.805,6.029,13.3016,4.60067,2470.273,2022-1-26T10:00:59Z
2022-01-26T08:02:31Z,42.805,6.029,13.3007,4.60044,2470.287,2022-1-26T10:04:03Z
2022-01-26T08:05:34Z,42.805,6.029,13.3014,4.60057,2470.31,2022-1-26T10:07:06Z
2022-01-26T08:08:37Z,42.805,6.029,13.3009,4.60060,2470.287,2022-1-26T10:10:09Z
2022-01-26T08:11:40Z,42.805,6.029,13.3012,4.60063,2470.273,2022-1-26T10:13:12Z
2022-01-26T08:14:43Z,42.805,6.029,13.3006,4.60046,2470.283,2022-1-26T10:16:15Z
2022-01-26T08:17:46Z,42.805,6.029,13.3008,4.60054,2470.32,2022-1-26T10:19:18Z
2022-01-26T08:20:49Z,42.805,6.029,13.3013,4.60058,2470.297,2022-1-26T10:22:21Z
2022-01-26T08:23:53Z,42.805,6.029,13.3014,4.60055,2470.32,2022-1-26T10:25:24Z
2022-01-26T08:26:56Z,42.805,6.029,13.3009,4.60063,2470.297,2022-1-26T10:28:28Z
2022-01-26T08:29:59Z,42.805,6.029,13.3014,4.60056,2470.297,2022-1-26T10:31:31Z
2022-01-26T08:33:02Z,42.805,6.029,13.3010,4.60052,2470.32,2022-1-26T10:34:34Z
2022-01-26T08:36:05Z,42.805,6.029,13.3005,4.60055,2470.32,2022-1-26T10:37:37Z
2022-01-26T08:39:08Z,42.805,6.029,13.3006,4.60062,2470.297,2022-1-26T10:40:40Z
2022-01-26T08:42:11Z,42.805,6.029,13.3008,4.60067,2470.297,2022-1-26T10:43:43Z
2022-01-26T08:45:14Z,42.805,6.029,13.3009,4.60049,2470.334,2022-1-26T10:46:46Z
2022-01-26T08:48:18Z,42.805,6.029,13.3010,4.60064,2470.297,2022-1-26T10:49:50Z
2022-01-26T08:51:21Z,42.805,6.029,13.3006,4.60059,2470.273,2022-1-26T10:52:53Z
2022-01-26T08:54:24Z,42.805,6.029,13.3015,4.60060,2470.32,2022-1-26T10:55:56Z
2022-01-26T08:57:27Z,42.805,6.029,13.3012,4.60062,2470.32,2022-1-26T10:58:59Z
2022-01-26T09:00:30Z,42.805,6.029,13.3012,4.60049,2470.334,2022-1-26T11:02:02Z
2022-01-26T09:03:33Z,42.805,6.029,13.3007,4.60056,2470.343,2022-1-26T11:05:05Z
2022-01-26T09:06:36Z,42.805,6.029,13.3015,4.60057,2470.366,2022-1-26T11:08:08Z
2022-01-26T09:09:39Z,42.805,6.029,13.3003,4.60045,2470.334,2022-1-26T11:11:11Z
2022-01-26T09:12:43Z,42.805,6.029,13.3012,4.60053,2470.343,2022-1-26T11:14:15Z
2022-01-26T09:15:46Z,42.805,6.029,13.3009,4.60040,2470.32,2022-1-26T11:17:18Z
2022-01-26T09:18:49Z,42.805,6.029,13.3016,4.60052,2470.32,2022-1-26T11:20:21Z
2022-01-26T09:21:52Z,42.805,6.029,13.3014,4.60057,2470.38,2022-1-26T11:23:24Z
2022-01-26T09:24:55Z,42.805,6.029,13.3006,4.60057,2470.343,2022-1-26T11:26:27Z
2022-01-26T09:27:58Z,42.805,6.029,13.3014,4.60067,2470.357,2022-1-26T11:29:30Z
2022-01-26T09:31:01Z,42.805,6.029,13.3018,4.60071,2470.357,2022-1-26T11:32:33Z
2022-01-26T09:34:05Z,42.805,6.029,13.3023,4.60054,2470.334,2022-1-26T11:35:36Z
2022-01-26T09:37:08Z,42.805,6.029,13.3008,4.60066,2470.343,2022-1-26T11:38:40Z
2022-01-26T09:40:11Z,42.805,6.029,13.3012,4.60058,2470.38,2022-1-26T11:41:43Z
2022-01-26T09:43:14Z,42.805,6.029,13.3015,4.60050,2470.306,2022-1-26T11:44:46Z
2022-01-26T09:46:17Z,42.805,6.029,13.3012,4.60052,2470.32,2022-1-26T11:47:49Z
2022-01-26T09:49:20Z,42.805,6.029,13.3011,4.60064,2470.357,2022-1-26T11:50:52Z
2022-01-26T09:52:23Z,42.805,6.029,13.3009,4.60052,2470.357,2022-1-26T11:53:55Z
2022-01-26T09:55:26Z,42.805,6.029,13.3008,4.60066,2470.357,2022-1-26T11:56:58Z
2022-01-26T09:58:30Z,42.805,6.029,13.3009,4.60062,2470.38,2022-1-26T12:00:01Z
2022-01-26T10:01:33Z,42.805,6.029,13.3008,4.60070,2470.404,2022-1-26T12:03:05Z
2022-01-26T10:04:36Z,42.805,6.029,13.3006,4.60062,2470.357,2022-1-26T12:06:08Z
2022-01-26T10:07:39Z,42.805,6.029,13.3011,4.60057,2470.357,2022-1-26T12:09:11Z
2022-01-26T10:10:42Z,42.805,6.029,13.3015,4.60057,2470.366,2022-1-26T12:12:14Z
2022-01-26T10:13:45Z,42.805,6.029,13.3009,4.60064,2470.39,2022-1-26T12:15:17Z
2022-01-26T10:16:48Z,42.805,6.029,13.3006,4.60059,2470.404,2022-1-26T12:18:20Z
2022-01-26T10:19:51Z,42.805,6.029,13.3010,4.60052,2470.366,2022-1-26T12:21:23Z
2022-01-26T10:22:55Z,42.805,6.029,13.3011,4.60051,2470.366,2022-1-26T12:24:26Z
2022-01-26T10:25:58Z,42.805,6.029,13.3016,4.60054,2470.366,2022-1-26T12:27:30Z
2022-01-26T10:29:01Z,42.805,6.029,13.3006,4.60055,2470.404,2022-1-26T12:30:33Z
2022-01-26T10:32:04Z,42.805,6.029,13.3003,4.60038,2470.413,2022-1-26T12:33:36Z
2022-01-26T10:35:07Z,42.805,6.029,13.3007,4.60046,2470.38,2022-1-26T12:36:39Z
2022-01-26T10:38:10Z,42.805,6.029,13.3003,4.60047,2470.39,2022-1-26T12:39:42Z
2022-01-26T10:41:13Z,42.805,6.029,13.3011,4.60049,2470.404,2022-1-26T12:42:45Z
2022-01-26T10:44:16Z,42.805,6.029,13.3006,4.60046,2470.39,2022-1-26T12:45:48Z
2022-01-26T10:47:20Z,42.805,6.029,13.3010,4.60046,2470.38,2022-1-26T12:48:52Z
2022-01-26T10:50:23Z,42.805,6.029,13.3009,4.60044,2470.39,2022-1-26T12:51:55Z
2022-01-26T10:53:26Z,42.805,6.029,13.3005,4.60044,2470.38,2022-1-26T12:54:58Z
2022-01-26T10:56:29Z,42.805,6.029,13.3012,4.60067,2470.38,2022-1-26T12:58:01Z
2022-01-26T10:59:32Z,42.805,6.029,13.3007,4.60044,2470.39,2022-1-26T13:01:04Z
2022-01-26T11:02:35Z,42.805,6.029,13.3010,4.60040,2470.39,2022-1-26T13:04:07Z
2022-01-26T11:05:38Z,42.805,6.029,13.3014,4.60057,2470.404,2022-1-26T13:07:10Z
2022-01-26T11:08:41Z,42.805,6.029,13.3006,4.60049,2470.39,2022-1-26T13:10:13Z
2022-01-26T11:11:45Z,42.805,6.029,13.3006,4.60051,2470.413,2022-1-26T13:13:16Z
2022-01-26T11:14:48Z,42.805,6.029,13.3008,4.60061,2470.45,2022-1-26T13:16:20Z
2022-01-26T11:17:51Z,42.805,6.029,13.3018,4.60081,2470.413,2022-1-26T13:19:23Z
2022-01-26T11:20:54Z,42.805,6.029,13.3011,4.60051,2470.413,2022-1-26T13:22:26Z
2022-01-26T11:23:57Z,42.805,6.029,13.3015,4.60073,2470.45,2022-1-26T13:25:29Z
2022-01-26T11:27:00Z,42.805,6.029,13.3010,4.60082,2470.45,2022-1-26T13:28:32Z
2022-01-26T11:30:03Z,42.805,6.029,13.3022,4.60074,2470.39,2022-1-26T13:31:35Z
2022-01-26T11:33:07Z,42.805,6.029,13.3009,4.60049,2470.427,2022-1-26T13:34:38Z
2022-01-26T11:36:10Z,42.805,6.029,13.3014,4.60074,2470.427,2022-1-26T13:37:42Z
2022-01-26T11:39:13Z,42.805,6.029,13.3008,4.60046,2470.427,2022-1-26T13:40:45Z
2022-01-26T11:42:16Z,42.805,6.029,13.3016,4.60046,2470.427,2022-1-26T13:43:48Z
2022-01-26T11:45:19Z,42.805,6.029,13.3008,4.60046,2470.413,2022-1-26T13:46:51Z
2022-01-26T11:48:22Z,42.805,6.029,13.3008,4.60042,2470.39,2022-1-26T13:49:54Z
2022-01-26T11:51:25Z,42.805,6.029,13.3016,4.60052,2470.38,2022-1-26T13:52:57Z
2022-01-26T11:54:28Z,42.805,6.029,13.3024,4.60058,2470.437,2022-1-26T13:56:00Z
2022-01-26T11:57:32Z,42.805,6.029,13.3006,4.60064,2470.437,2022-1-26T13:59:03Z
2022-01-26T12:00:35Z,42.805,6.029,13.3019,4.60060,2470.413,2022-1-26T14:02:07Z
2022-01-26T12:03:38Z,42.805,6.029,13.3008,4.60045,2470.39,2022-1-26T14:05:10Z
2022-01-26T12:06:41Z,42.805,6.029,13.3015,4.60052,2470.413,2022-1-26T14:08:13Z
2022-01-26T12:09:44Z,42.805,6.029,13.3009,4.60069,2470.413,2022-1-26T14:11:16Z
2022-01-26T12:12:47Z,42.805,6.029,13.3011,4.60066,2470.45,2022-1-26T14:14:19Z
2022-01-26T12:15:50Z,42.805,6.029,13.3017,4.60056,2470.427,2022-1-26T14:17:22Z
2022-01-26T12:18:53Z,42.805,6.029,13.3012,4.60059,2470.404,2022-1-26T14:20:25Z
2022-01-26T12:21:57Z,42.805,6.029,13.3009,4.60046,2470.437,2022-1-26T14:23:28Z
2022-01-26T12:25:00Z,42.805,6.029,13.3011,4.60058,2470.45,2022-1-26T14:26:32Z
2022-01-26T12:28:03Z,42.805,6.029,13.3014,4.60056,2470.404,2022-1-26T14:29:35Z
2022-01-26T12:31:06Z,42.805,6.029,13.3014,4.60057,2470.437,2022-1-26T14:32:38Z
2022-01-26T12:34:09Z,42.805,6.029,13.3007,4.60051,2470.437,2022-1-26T14:35:41Z
2022-01-26T12:37:12Z,42.805,6.029,13.3011,4.60050,2470.437,2022-1-26T14:38:44Z
2022-01-26T12:40:15Z,42.805,6.029,13.3007,4.60052,2470.427,2022-1-26T14:41:47Z
2022-01-26T12:43:18Z,42.805,6.029,13.3006,4.60053,2470.45,2022-1-26T14:44:50Z
2022-01-26T12:46:22Z,42.805,6.029,13.3010,4.60043,2470.404,2022-1-26T14:47:54Z
2022-01-26T12:49:25Z,42.805,6.029,13.3012,4.60046,2470.427,2022-1-26T14:50:57Z
2022-01-26T12:52:28Z,42.805,6.029,13.3015,4.60042,2470.413,2022-1-26T14:54:00Z
2022-01-26T12:55:31Z,42.805,6.029,13.3006,4.60041,2470.413,2022-1-26T14:57:03Z
2022-01-26T12:58:34Z,42.805,6.029,13.3011,4.60046,2470.413,2022-1-26T15:00:06Z
2022-01-26T13:01:37Z,42.805,6.029,13.3011,4.60058,2470.427,2022-1-26T15:03:09Z
2022-01-26T13:04:40Z,42.805,6.029,13.3012,4.60052,2470.413,2022-1-26T15:06:12Z
2022-01-26T13:07:44Z,42.805,6.029,13.3005,4.60047,2470.45,2022-1-26T15:09:15Z
2022-01-26T13:10:47Z,42.805,6.029,13.3012,4.60057,2470.45,2022-1-26T15:12:19Z
2022-01-26T13:13:50Z,42.805,6.029,13.3012,4.60068,2470.45,2022-1-26T15:15:22Z
2022-01-26T13:16:53Z,42.805,6.029,13.3012,4.60061,2470.413,2022-1-26T15:18:25Z
2022-01-26T13:19:56Z,42.805,6.029,13.3019,4.60055,2470.413,2022-1-26T15:21:28Z
2022-01-26T13:22:59Z,42.805,6.029,13.3011,4.60052,2470.427,2022-1-26T15:24:31Z
2022-01-26T13:26:02Z,42.805,6.029,13.3011,4.60052,2470.413,2022-1-26T15:27:34Z
2022-01-26T13:29:05Z,42.805,6.029,13.3016,4.60061,2470.427,2022-1-26T15:30:37Z
2022-01-26T13:32:09Z,42.805,6.029,13.3024,4.60084,2470.437,2022-1-26T15:33:40Z
2022-01-26T13:35:12Z,42.805,6.029,13.3026,4.60066,2470.404,2022-1-26T15:36:44Z
2022-01-26T13:38:15Z,42.805,6.029,13.3014,4.60076,2470.45,2022-1-26T15:39:47Z
2022-01-26T13:41:18Z,42.805,6.029,13.3030,4.60086,2470.427,2022-1-26T15:42:50Z
2022-01-26T13:44:21Z,42.805,6.029,13.3024,4.60078,2470.413,2022-1-26T15:45:53Z
2022-01-26T13:47:24Z,42.805,6.029,13.3008,4.60072,2470.427,2022-1-26T15:48:56Z
2022-01-26T13:50:27Z,42.805,6.029,13.3017,4.60059,2470.399,2022-1-26T15:51:59Z
2022-01-26T13:53:30Z,42.805,6.029,13.3021,4.60057,2470.437,2022-1-26T15:55:02Z
2022-01-26T13:56:34Z,42.805,6.029,13.3010,4.60068,2470.39,2022-1-26T15:58:06Z
2022-01-26T13:59:37Z,42.805,6.029,13.3029,4.60057,2470.399,2022-1-26T16:01:09Z
2022-01-26T14:02:40Z,42.805,6.029,13.3025,4.60081,2470.413,2022-1-26T16:04:12Z
2022-01-26T14:05:43Z,42.805,6.029,13.3017,4.60074,2470.413,2022-1-26T16:07:15Z
2022-01-26T14:08:46Z,42.805,6.029,13.3025,4.60069,2470.46,2022-1-26T16:10:18Z
2022-01-26T14:11:49Z,42.805,6.029,13.3024,4.60087,2470.427,2022-1-26T16:13:21Z
2022-01-26T14:14:52Z,42.805,6.029,13.3014,4.60074,2470.427,2022-1-26T16:16:24Z
2022-01-26T14:17:55Z,42.805,6.029,13.3012,4.60052,2470.413,2022-1-26T16:19:27Z
2022-01-26T14:20:59Z,42.805,6.029,13.3020,4.60073,2470.437,2022-1-26T16:22:31Z
2022-01-26T14:24:02Z,42.805,6.029,13.3029,4.60080,2470.413,2022-1-26T16:25:34Z
2022-01-26T14:27:05Z,42.805,6.029,13.3016,4.60081,2470.366,2022-1-26T16:28:37Z
2022-01-26T14:30:08Z,42.805,6.029,13.3020,4.60084,2470.427,2022-1-26T16:31:40Z
2022-01-26T14:33:11Z,42.805,6.029,13.3033,4.60084,2470.437,2022-1-26T16:34:43Z
2022-01-26T14:36:14Z,42.805,6.029,13.3014,4.60079,2470.427,2022-1-26T16:37:46Z
2022-01-26T14:39:17Z,42.805,6.029,13.3021,4.60058,2470.427,2022-1-26T16:40:49Z
2022-01-26T14:42:20Z,42.805,6.029,13.3028,4.60084,2470.427,2022-1-26T16:43:52Z
2022-01-26T14:45:24Z,42.805,6.029,13.3021,4.60098,2470.45,2022-1-26T16:46:56Z
2022-01-26T14:48:27Z,42.805,6.029,13.3021,4.60079,2470.404,2022-1-26T16:49:59Z
2022-01-26T14:51:30Z,42.805,6.029,13.3024,4.60094,2470.38,2022-1-26T16:53:02Z
2022-01-26T14:54:33Z,42.805,6.029,13.3019,4.60049,2470.413,2022-1-26T16:56:05Z
2022-01-26T14:57:36Z,42.805,6.029,13.3046,4.60094,2470.39,2022-1-26T16:59:08Z
2022-01-26T15:00:39Z,42.805,6.029,13.3029,4.60092,2470.45,2022-1-26T17:02:11Z
2022-01-26T15:03:42Z,42.805,6.029,13.3029,4.60112,2470.427,2022-1-26T17:05:14Z
2022-01-26T15:06:46Z,42.805,6.029,13.3039,4.60093,2470.413,2022-1-26T17:08:17Z
2022-01-26T15:09:49Z,42.805,6.029,13.3021,4.60069,2470.427,2022-1-26T17:11:21Z
2022-01-26T15:12:52Z,42.805,6.029,13.3019,4.60114,2470.39,2022-1-26T17:14:24Z